2019-036H (44346 NORAD) Tracking and Keplerian Element Data

This shows tracking and keplerian element data for the satellite.

Feedback or suggestion? Click here.




ElementValue
Catalog44346
Name2019-036H
Epoch Orbit383
Epoch Day201.87758608
Epoch Year2019
RAAN34.7995
Inclination28.5271
Eccentricity0.0391317
Argument of Perigee16.0838
Mean Anonmoly345.1795
Mean Motion14.96037576
Decay Rate5.815E-05
L11 44346U 19036H 19201.87758608 .00005815 00000-0 90408-4 0 9996
L22 44346 28.5271 34.7995 0391317 16.0838 345.1795 14.96037576 3831

Live tracking and technical data element details for 2019-036H (NORAD 44346). 2019-036H can be tracked NOW for your location showing map with azimuth and elevation plus other details from your city location.

Track the satellite on the map from your city or location and see movement details for azimuth, elevation, latitude, longitude, range, height, and movement on the map or in text.







IsCatalogInMostPopularTable: catalog: 44346, numindb: 5
Update: records affected: 1



GetName: 44346 2019-036H

Hit Count: updated at: Sun, 21 Jul 2019 21:32:04 GMT